Weather in Attawapiskat

Canada     52°55′33″N   82°25′43″W
temp.,
°C
wind,
m/s
gust,
m/s
humid.,
%
clouds,
%
prec.,
mm/h
press.,
hPa
HPBL,
m
5 march, fri
fri501:00−18nw718671 0.0 1022598
04:00−17nnw7177798 0.0 1020676
07:00−16nnw8169499 1.1 1020700
10:00−15nnw81693100 1.6 1019789
13:00−13nnw81592100 2.4 1020877
16:00−12nnw91691100 0.8 10201026
19:00−14nnw81781100 1.1 1021951
22:00−16nnw81775100 0.1 1021788
6 march, sat
sat601:00−18nnw71576100 0.1 1022684
04:00−21nw61482100 0.0 1022582
07:00−24nw61487100 0.0 1024497
10:00−23nw6128973 0.0 1025479
13:00−19nw6118657 0.0 1025566
16:00−17nw5108466 0.0 1026617
19:00−23nw389034 0.0 1027136
22:00−27nw33880 0.0 102766
7 march, sun
sun701:00−29nw23870 0.0 102719
04:00−29w12830 0.0 102819
07:00−29ssw22820 0.0 102819
10:00−21s35820 0.0 1026228
13:00−14sse48826 0.0 1025350
16:00−11sse5107925 0.0 1021400
19:00−12sse5138462 0.0 1018386
22:00−9s51386100 0.0 1015428
8 march, mon
mon801:00−6s51392100 0.0 1011490
04:00−2ssw51297100 2.8 1008601
07:00+1ssw41098100 3.6 1006401
10:00+1wnw61399100 0.4 1008707
13:00+1wnw61198100 0.6 1010777
16:00+1w5109897 0.1 1013757
19:00−1wnw4128698 0.3 1015743
22:00−1w3109092 0.0 1017473
9 march, tue
tue901:00−2w269196 0.1 1018192
04:00−5w239494 0.0 102021
07:00−7ssw229574 0.0 102121
10:00−3s359127 0.0 1020267
13:000sse379964 0.0 1018435
16:000sse4799100 1.0 1015431
19:000se3799100 4.8 1011285
22:00+1e1299100 1.3 100937